EHI
0 0 0 0 0 0 0 0 0 0 0 0 0 0 0 0 0 0 0 0 0 0 0 0 0 0 0 0 0 0 0 0 0 0 0 0 0 0 0 0 0 0 0 0
0 0 0 0 0 0 0 0 0 0 0 0 0 0 0 0 0 0 0 0 0 0 0 0 0 0 0 0 0 0 0 0 0 0 0 0 0 0 0 0 0 0 0 0
0 0 0 0 0 0 0 0 0 0 0 0 0 0 0 0 0 0 0 0 0 0 0 0 0 0 0 0 0 0 0 0 0 0 0 0 0 0 0 0 0 0 0 0
0 0 0 0 0 0 0 0 0 0 0 0 0 0 0 0 0 0 0 0 0 0 0 0 0 0 0 0 0 0 0 0 0 0 0 0 0 0 0 0 0 0 0 0
0 0 0 0 0 0 0 0 0 0 0 0 0 0 0 0 0 0 0 0 0 0 0 0 0 0 0 0 0 0 0 0 0 0 0 0 0 0 0 0 0 0 0 0
0 0 0 0 0 0 0 0 0 0 0 0 0 0 0 0 0 0 0 0 0 0 0 0 0 0 0 0 0 0 0 0 0 0 0 0 0 0 0 0 0 0 0 0
0 0 0 0 0 0 0 0 0 0 0 0 0 0 0 0 0 0 0 0 0 0 0 0 0 0 0 0 0 0 0 0 0 0 0 0 0 0 0 0 0 0 0 0
0 0 0 0 0 0 0 0 0 0 0 0 0 0 0 0 0 0 0 0 0 0 0 0 0 0 0 0 0 0 0 0 0 0 0 0 0 0 0 0 0 0 0 0
0 0 0 0 0 0 0 0 0 0 0 0 0 0 0 0 0 0 0 0 0 0 0 0 0 0 0 0 0 0 0 0 0 0 0 0 0 0 0 0 0 0 0 0
0 0 0 0 0 0 0 0 0 0 0 0 0 0 0 0 0 0 0 0 0 0 0 0 0 0 0 0 0 0 0 0 0 0 0 0 0 0 0 0 0 0 0 0
0 0 0 0 0 0 0 0 0 0 0 0 0 0 0 0 0 0 0 0 0 0 0 0 0 0 0 0 0 0 0 0 0 0 0 0 0 0 0 0 0 0 0 0
0 0 0 0 0 0 0 0 0 0 0 0 0 0 0 0 0 0 0 0 0 0 0 0 0 0 0 0 0 0 0 0 0 0 0 0 0 0 0 0 0 0 0 0
0 0 0 0 0 0 0 0 0 0 0 0 0 0 0 0 0 0 0 0 0 0 0 0 0 0 0 0 0 0 0 0 0 0 0 0 0 0 0 0 0 0 0 0
0 0 0 0 0 0 0 0 0 0 0 0 0 0 0 0 0 0 0 0 0 0 0 0 0 0 0 0 0 0 0 0 0 0 0 0 0 0 0 0 0 0 0 0
0 0 0 0 0 0 0 0 0 0 0 0 0 0 0 0 0 0 0 0 0 0 0 0 0 0 0 0 0 0 0 0 0 0 0 0 0 0 0 0 0 0 0 0
0 0 0 0 0 0 0 0 0 0 0 0 0 0 0 0 0 0 0 0 0 0 0 0 0 0 0 0 0 0 0 0 0 0 0 0 0 0 0 0 0 0 0 0
0 0 0 0 0 0 0 0 0 0 0 0 0 0 0 0 0 0 0 0 0 0 0 0 0 0 0 0 0 0 0 0 0 0 0 0 0 0 0 0 0 0 0 0
0 0 0 0 0 0 0 0 0 0 0 0 0 0 0 0 0 0 0 0 0 0 0 0 0 0 0 0 0 0 0 0 0 0 0 0 0 0 0 0 0 0 0 0
0 0 0 0 0 0 0 0 0 0 0 0 0 0 0 0 0 0 0 0 0 0 0 0 0 0 0 0 0 0 0 0 0 0 0 0 0 0 0 0 0 0 0 0
0 0 0 0 0 0 0 0 0 0 0 0 0 0 0 0 0 0 0 0 0 0 0 0 0 0 0 0 0 0 0 0 0 0 0 0 0 0 0 0 0 0 0 0
0 0 0 0 0 0 0 0 0 0 0 0 0 0 0 0 0 0 0 0 0 0 0 0 0 0 0 0 0 0 0 0 0 0 0 0 0 0 0 0 0 0 0 0
0 0 0 0 0 0 0 0 0 0 0 0 0 0 0 0 0 0 0 0 0 0 0 0 0 0 0 0 0 0 0 0 0 0 0 0 0 0 0 0 0 0 0 0
0 0 0 0 0 0 0 0 0 0 0 0 0 0 0 0 0 0 0 0 0 0 0 0 0 0 0 0 0 0 0 0 0 0 0 0 0 0 0 0 0 0 0 0
0 0 0 0 0 0 0 0 0 0 0 0 0 0 0 0 0 0 0 0 0 0 0 0 0 0 0 0 0 0 0 0 0 0 0 0 0 0 0 0 0 0 0 0
0 0 0 0 0 0 0 0 0 0 0 0 0 0 0 0 0 0 0 0 0 0 0 0 0 0 0 0 0 0 0 0 0 0 0 0 0 0 0 0 0 0 0 0
0 0 0 0 0 0 0 0 0 0 0 0 0 0 0 0 0 0 0 0 0 0 0 0 0 0 0 0 0 0 0 0 0 0 0 0 0 0 0 0 0 0 0 0
Wind_Speed
5 7 4 2 1 1 2 2 1 3 2 2 3 7 9 6 3 3 3 3 3 5 4 3 2 2 1 2 2 2 2 2 1 1 1 1 1 1 1 1 1 1 1 1
6 4 2 1 2 3 2 2 2 3 2 2 4 7 6 4 3 3 4 4 4 4 4 3 2 2 2 3 3 3 3 3 2 2 1 1 1 0 1 1 0 0 0 1
4 1 2 2 3 3 2 1 1 3 4 2 4 7 4 2 1 2 2 3 3 4 5 4 3 3 3 3 4 3 3 2 2 1 1 1 1 1 1 1 1 1 0 1
3 3 2 3 2 1 1 0 1 1 2 3 3 4 6 3 4 3 4 3 4 4 4 4 4 4 4 5 3 3 2 2 2 2 2 2 2 2 2 1 1 1 1 1
2 2 3 2 1 0 1 0 0 0 1 2 2 1 9 3 4 5 4 4 5 4 4 5 5 5 5 4 3 2 2 2 2 2 3 3 2 2 1 0 1 1 1 1
1 0 1 0 1 0 0 1 2 3 3 2 2 2 8 4 5 4 4 4 4 4 4 4 4 3 3 3 2 1 1 2 1 1 2 3 3 2 1 1 1 1 1 1
4 2 2 1 2 3 3 4 5 6 5 4 1 3 11 7 5 4 5 5 5 4 3 4 4 4 4 3 2 2 2 2 2 1 2 3 3 3 3 3 2 2 1 1
1 3 2 2 1 0 1 2 4 2 3 6 2 6 9 5 4 4 4 5 4 4 4 4 4 4 4 4 3 2 3 3 2 2 2 2 2 2 2 2 2 2 2 2
3 3 1 1 1 1 1 1 1 4 1 3 6 8 10 3 4 4 4 4 5 5 4 4 4 3 3 3 3 3 3 3 2 2 1 1 1 1 2 1 1 1 1 1
3 1 2 2 1 2 1 3 3 3 1 4 7 6 6 5 4 4 5 5 5 4 4 4 3 3 3 2 2 1 2 2 2 1 1 1 1 1 1 0 1 1 1 1
2 2 2 1 1 2 1 2 2 3 3 3 4 9 6 6 4 5 6 5 4 4 4 4 3 2 2 2 1 1 1 1 0 1 0 0 1 1 1 1 2 1 1 1
2 3 2 4 2 1 2 3 4 3 3 3 3 11 4 5 4 4 6 5 4 4 4 4 3 2 2 2 2 1 1 1 1 1 1 1 1 0 1 1 2 1 1 1
3 4 2 5 2 1 1 2 3 3 3 3 4 11 3 2 4 4 5 5 4 4 4 3 3 3 2 2 2 1 1 1 1 0 1 0 0 0 1 2 1 1 1 1
3 3 5 7 5 3 3 3 4 4 4 5 10 12 11 8 7 6 5 5 5 5 4 4 4 3 3 2 2 2 2 1 1 0 0 0 1 1 2 2 1 1 1 1
3 3 4 5 3 3 6 7 7 9 9 10 10 10 16 10 7 7 6 5 5 6 5 5 4 4 3 3 2 2 2 1 1 0 1 2 1 1 1 1 1 1 1 1
3 3 1 4 2 3 7 10 11 11 9 11 11 16 14 8 5 6 6 6 6 7 6 6 5 4 4 4 3 3 3 2 1 1 2 1 1 1 1 1 1 1 2 2
3 4 2 4 3 4 10 11 13 9 11 11 14 16 7 6 7 7 7 6 8 8 7 6 6 5 5 4 4 4 3 1 1 1 1 1 1 1 1 1 1 1 2 2
6 5 3 1 3 8 10 4 9 9 10 12 12 11 9 9 7 7 8 8 9 8 7 6 5 5 4 3 3 3 2 2 2 1 2 1 1 2 2 1 2 2 1 2
4 6 4 3 3 11 10 4 7 8 10 11 15 15 11 5 5 8 8 9 9 8 7 6 5 4 3 3 3 2 2 1 2 2 2 2 2 2 2 2 2 2 2 2
2 3 5 4 4 9 8 3 5 3 8 7 11 12 8 2 3 7 4 4 6 6 4 4 2 2 2 3 3 3 3 2 3 3 3 2 2 3 3 3 2 2 2 2
4 3 6 6 8 14 8 4 6 5 9 4 8 9 8 9 10 6 3 3 4 4 4 3 2 3 3 3 3 3 3 4 4 2 2 2 2 2 2 2 2 2 2 2
11 9 9 7 7 15 7 9 12 11 3 3 5 6 7 9 8 7 6 5 4 3 3 3 3 3 2 3 4 4 5 4 1 1 2 2 2 2 1 1 2 1 1 2
12 12 10 14 14 6 9 11 8 2 4 4 4 5 5 6 7 7 6 6 5 5 4 3 3 3 3 3 4 5 4 2 2 2 2 2 1 1 1 1 2 1 1 2
7 3 5 8 13 8 8 8 7 6 7 6 5 4 4 7 8 7 6 6 5 5 4 3 3 4 4 3 4 5 3 2 3 3 3 2 2 1 1 1 1 2 2 2
9 8 6 10 10 7 8 10 11 9 8 7 7 5 6 7 8 8 7 6 5 5 3 3 4 5 5 3 3 3 3 3 3 3 2 2 2 2 1 1 2 3 3 3
9 11 11 12 9 8 8 5 6 7 8 8 7 6 5 6 8 7 7 6 5 4 3 3 4 5 4 3 3 2 2 3 4 3 3 2 2 1 1 1 2 3 4 5
Wind_Direction
20 57 45 344 16 121 133 136 272 285 329 337 275 282 287 287 273 267 267 264 270 274 286 288 276 279 255 238 241 255 257 249 201 192 197 210 250 274 296 283 262 225 223 206
48 40 334 358 68 91 98 71 328 313 346 338 309 293 284 264 244 235 242 253 264 285 304 302 302 289 258 251 246 246 246 235 216 209 204 209 207 259 268 290 334 290 227 225
98 313 334 71 62 68 49 151 266 304 331 0 338 316 307 299 292 289 260 253 265 260 275 291 291 277 270 264 251 245 243 237 228 185 107 68 35 349 316 309 310 320 272 214
63 348 34 60 39 53 312 265 211 319 8 333 27 311 298 306 307 282 269 268 266 269 271 275 275 276 265 263 262 254 236 234 227 177 170 181 205 234 245 248 268 311 299 247
34 12 36 43 327 28 218 323 111 62 108 343 6 244 287 327 299 278 265 266 265 264 266 272 267 261 266 266 257 251 232 238 229 193 188 190 217 234 243 261 289 294 287 257
60 14 48 316 310 217 184 45 51 50 64 334 276 204 281 257 243 276 282 281 278 278 277 278 282 282 283 280 270 257 234 253 245 208 194 191 209 218 226 253 254 271 268 259
4 15 9 8 32 17 41 64 23 5 7 267 275 238 255 255 247 251 277 285 287 286 282 287 295 292 289 284 270 250 236 255 257 232 218 213 216 212 219 230 233 243 248 251
52 315 332 2 80 176 23 110 138 202 258 291 302 248 257 258 272 273 275 279 290 288 281 280 281 278 279 275 265 242 237 248 249 240 241 233 223 218 227 228 226 237 238 240
154 260 336 357 326 120 104 109 146 128 65 298 282 285 297 274 290 293 293 293 288 284 284 283 291 293 290 281 265 243 235 243 245 243 247 238 226 221 223 224 218 231 236 243
147 221 305 311 40 28 82 144 100 111 118 293 296 279 259 280 280 291 289 281 283 291 297 294 292 298 301 288 287 287 245 235 239 232 224 230 222 233 229 205 241 239 241 239
131 136 318 7 178 199 98 112 114 116 155 177 286 277 229 230 248 264 272 273 279 290 289 290 292 294 301 312 319 309 295 273 275 253 230 230 225 220 203 212 240 239 243 243
135 116 270 256 227 217 198 186 161 162 229 203 230 270 259 234 256 266 277 285 292 288 284 283 286 296 305 307 307 295 282 260 248 207 183 223 237 212 211 234 253 249 251 257
143 118 29 343 331 328 250 215 184 150 138 180 209 264 285 294 295 284 277 284 291 294 291 291 289 283 280 281 283 282 273 256 257 176 184 268 307 275 250 252 254 255 257 271
122 145 181 213 238 200 236 223 184 161 190 222 230 257 284 289 292 292 285 281 283 283 280 279 276 269 267 264 260 262 269 255 254 187 180 280 288 278 263 262 267 262 262 261
128 199 237 256 265 235 235 229 204 208 212 220 243 247 265 270 267 273 274 275 282 283 280 270 265 264 260 258 255 249 251 252 233 218 247 264 282 292 270 261 276 280 267 264
141 178 227 289 270 261 264 246 222 226 230 241 261 269 261 267 263 263 264 264 267 268 268 266 261 258 252 243 238 237 240 235 197 215 250 282 315 324 318 275 279 282 274 270
157 143 142 274 311 334 271 231 205 211 214 205 231 246 261 269 261 256 258 259 257 261 262 257 252 246 242 231 219 220 225 211 201 228 262 291 299 302 307 318 298 277 275 275
152 142 147 273 25 252 249 190 191 213 234 219 238 254 254 250 268 265 248 244 252 252 251 250 245 244 236 220 213 206 188 191 209 240 265 280 286 292 307 301 288 285 282 272
171 151 138 144 246 275 286 222 183 201 261 219 228 249 258 273 309 281 246 223 230 238 241 243 237 229 223 215 205 188 193 195 213 240 251 255 247 259 274 278 281 285 282 278
134 141 142 157 204 245 250 191 172 144 278 225 206 232 238 183 260 268 253 225 235 243 242 239 228 209 214 218 189 187 206 212 232 241 248 247 238 241 251 260 272 280 275 276
162 172 188 195 228 259 246 165 139 180 245 214 197 216 201 201 222 248 273 262 246 245 243 227 211 218 223 206 184 204 218 233 237 236 243 248 247 245 250 260 274 281 283 292
180 178 193 176 214 252 193 154 190 217 231 201 204 210 212 229 249 264 271 268 263 257 243 217 220 239 228 194 189 215 234 239 210 205 226 243 251 253 255 256 280 288 280 283
206 198 189 196 217 240 176 201 221 219 227 228 220 223 219 242 257 261 264 265 265 254 244 227 225 245 240 208 196 220 236 206 188 209 230 241 253 259 256 245 259 279 267 265
238 218 209 245 256 248 233 246 255 242 242 251 251 254 232 242 258 264 265 266 264 258 244 229 221 242 251 228 216 222 221 180 192 216 232 232 233 252 262 252 239 241 245 252
213 179 213 252 268 289 264 235 243 247 251 261 262 249 243 247 260 259 263 263 257 255 248 222 222 237 247 237 232 227 202 181 201 216 223 230 238 240 246 250 249 249 246 239
193 187 194 231 225 214 248 244 228 234 247 249 254 262 252 237 252 261 265 264 260 256 244 236 236 241 248 236 235 227 202 189 193 212 218 218 224 235 238 254 291 278 269 282